Change the Weather History Date:

Thursday, November 22, 2012

  Actual Average Record
Temperature  
Mean Temperature 30 °F -  
Max Temperature 35 °F - - ()
Min Temperature 24 °F - - ()
Degree Days  
Heating Degree Days 36    
Moisture  
Dew Point 27 °F    
Average Humidity 87    
Maximum Humidity 97    
Minimum Humidity 70    
Precipitation  
Precipitation 0.00 in - - ()
Sea Level Pressure  
Sea Level Pressure 30.35 in    
Wind  
Wind Speed 0 mph ()    
Max Wind Speed 5 mph    
Max Gust Speed -    
T = Trace of Precipitation, MM = Missing Value Source: Averaged Metar Reports

Daily Weather History Graph

Daily Weather History Graph

Search for Another Location

Airport or City:

Trip Planner

Search our weather history database for the weather conditions in past years. The results will help you decide how hot, cold, wet, or windy it might be!

Date:

Astronomy

Nov. 22, 2012 Rise Set
Actual Time 7:24 AM PST 4:11 PM PST
Civil Twilight 6:48 AM PST 4:47 PM PST
Nautical Twilight 6:09 AM PST 5:27 PM PST
Astronomical Twilight 5:31 AM PST 6:05 PM PST
Moon 1:24 PM PST (11/22) 1:22 AM PST (11/22)
Length of Visible Light 9h 58m
Length of Day
8h 46m
Waxing Gibbous, 72% of the Moon is Illuminated
Nov 22
Waxing Gibbous
Nov 28
Full
Dec 6
Last Quarter
Dec 13
New
Dec 19
First Quarter

Hourly Weather History & Observations

Time (PST) Temp. Windchill Dew Point Humidity Pressure Visibility Wind Dir Wind Speed Gust Speed Precip Events Conditions
12:00 AM 29.7 °F - 27.7 °F 92% 30.22 in - Calm Calm - N/A   Unknown
1:00 AM 27.9 °F - 26.1 °F 93% 30.25 in - Calm Calm - N/A   Unknown
2:00 AM 29.7 °F - 27.0 °F 90% 30.27 in - West 2.3 mph - N/A   Unknown
3:00 AM 27.5 °F - 26.1 °F 94% 30.31 in - Calm Calm - N/A   Unknown
4:00 AM 26 °F - 24 °F 90% 30.34 in - Calm Calm - -  
4:00 AM 25.9 °F - 24.3 °F 94% 30.34 in - Calm Calm - N/A   Unknown
5:00 AM 24.8 °F - 23.2 °F 94% 30.36 in - Calm Calm - N/A   Unknown
6:00 AM 26.1 °F - 24.8 °F 95% 30.39 in - Calm Calm - N/A   Unknown
7:00 AM 25.2 °F - 23.7 °F 94% 30.40 in - Calm Calm - N/A   Unknown
8:00 AM 25.5 °F - 24.4 °F 96% 30.42 in - Calm Calm - N/A   Unknown
9:00 AM 27.0 °F - 26.2 °F 97% 30.44 in - Calm Calm - N/A   Unknown
10:00 AM 29 °F - 27 °F 91% 30.44 in - Calm Calm - -  
10:00 AM 28.6 °F - 27.3 °F 95% 30.44 in - Calm Calm - N/A   Unknown
11:00 AM 30.4 °F - 28.0 °F 91% 30.43 in - Calm Calm - N/A   Unknown
12:00 PM 31.8 °F - 28.2 °F 87% 30.42 in - Calm Calm - N/A   Unknown
1:00 PM 34.0 °F - 27.7 °F 78% 30.40 in - Calm Calm - N/A   Unknown
2:00 PM 34.7 °F - 25.9 °F 70% 30.38 in - Calm Calm - N/A   Unknown
3:00 PM 34.3 °F - 26.6 °F 73% 30.37 in - Calm Calm - N/A   Unknown
4:00 PM 33 °F - 28 °F 73% 30.36 in - Calm Calm - -  
4:00 PM 31.3 °F - 27.5 °F 86% 30.36 in - Calm Calm - N/A   Unknown
5:00 PM 31.6 °F - 28.4 °F 88% 30.37 in - Calm Calm - N/A   Unknown
6:00 PM 32.9 °F - 28.4 °F 84% 30.35 in - Calm Calm - N/A   Unknown
7:00 PM 31.8 °F - 28.9 °F 89% 30.34 in - Calm Calm - N/A   Unknown
8:00 PM 35.2 °F 31.2 °F 28.9 °F 78% 30.31 in - NNW 4.6 mph - N/A   Unknown
9:00 PM 33.1 °F - 28.9 °F 85% 30.31 in - Calm Calm - N/A   Unknown
10:00 PM 33 °F - 29 °F 81% 30.29 in - Calm Calm - -  
10:00 PM 32.9 °F - 29.3 °F 87% 30.29 in - Calm Calm - N/A   Unknown
11:00 PM 32.9 °F - 28.6 °F 84% 30.27 in - Calm Calm - N/A   Unknown